OE6JUE Weather Reports


time (UTC)temp
C
wind
direction
speed
KPH
gust
KPH
rain 1hr
cm
rain 24hr
cm
rain mn
cm
humidity
%
barometer
mb
20260506165116 19 135 8.0 24.1 0.00 0.00 0.00 57 1009.6
20260506164616 19 248 8.0 25.7 0.00 0.00 0.00 57 1009.6
20260506164116 18 180 4.8 16.1 0.00 0.00 0.00 58 1009.6
20260506163616 18 158 9.7 24.1 0.00 0.00 0.00 57 1009.7
20260506163116 19 135 8.0 24.1 0.00 0.00 0.00 57 1009.7
20260506162615 19 45 9.7 27.4 0.00 0.00 0.00 56 1009.8
20260506162116 19 135 8.0 19.3 0.00 0.00 0.00 56 1009.8
20260506161616 18 90 4.8 17.7 0.00 0.00 0.00 58 1009.9
20260506161116 18 270 6.4 20.9 0.00 0.00 0.00 57 1009.9
20260506160615 19 180 9.7 29.0 0.00 0.00 0.00 56 1009.9
20260506160115 19 180 9.7 29.0 0.00 0.00 0.00 56 1009.9
20260506155616 19 180 6.4 20.9 0.00 0.00 0.00 55 1009.9
20260506155116 19 225 4.8 19.3 0.00 0.00 0.00 55 1010.0
20260506154616 20 225 6.4 22.5 0.00 0.00 0.00 54 1010.0
20260506154116 20 180 8.0 20.9 0.00 0.00 0.00 55 1010.1
20260506153616 19 225 11.3 27.4 0.00 0.00 0.00 54 1010.2
20260506153115 20 180 14.5 41.8 0.00 0.00 0.00 54 1010.0
20260506152615 20 180 4.8 16.1 0.00 0.00 0.00 55 1010.0
20260506152115 20 135 6.4 17.7 0.00 0.00 0.00 54 1009.9
20260506151615 20 158 8.0 24.1 0.00 0.00 0.00 54 1010.1
20260506151116 20 158 4.8 17.7 0.00 0.00 0.00 54 1010.1
20260506150615 19 180 11.3 27.4 0.00 0.00 0.00 54 1010.2
20260506150116 20 135 8.0 20.9 0.00 0.00 0.00 54 1009.9
20260506145616 20 225 11.3 33.8 0.00 0.00 0.00 53 1010.0
20260506145115 20 270 6.4 16.1 0.00 0.00 0.00 54 1009.9
20260506144616 20 158 9.7 27.4 0.00 0.00 0.00 53 1010.0
20260506144115 20 180 8.0 20.9 0.00 0.00 0.00 53 1009.9
20260506143615 20 180 8.0 27.4 0.00 0.00 0.00 52 1010.1
20260506143116 21 180 12.9 38.6 0.00 0.00 0.00 50 1010.0
20260506142616 21 225 8.0 27.4 0.00 0.00 0.00 50 1009.9
20260506142115 21 225 4.8 12.9 0.00 0.00 0.00 51 1009.9
20260506141615 21 180 12.9 40.2 0.00 0.00 0.00 50 1009.9
20260506141115 21 135 14.5 43.5 0.00 0.00 0.00 50 1009.8
20260506140615 21 180 12.9 38.6 0.00 0.00 0.00 50 1009.9
20260506140115 21 135 9.7 27.4 0.00 0.00 0.00 49 1010.0
20260506135615 22 180 12.9 49.9 0.00 0.00 0.00 48 1010.0
20260506135115 21 180 9.7 27.4 0.00 0.00 0.00 50 1010.2
20260506134556 21 180 9.7 29.0 0.00 0.00 0.00 49 1010.1
20260506134057 21 90 6.4 24.1 0.00 0.00 0.00 47 1010.1
20260506133556 22 135 9.7 30.6 0.00 0.00 0.00 44 1009.9
20260506133055 22 180 11.3 29.0 0.00 0.00 0.00 46 1009.9
20260506132556 22 135 9.7 30.6 0.00 0.00 0.00 43 1010.0
20260506132056 22 180 9.7 32.2 0.00 0.00 0.00 43 1010.0
20260506131556 22 180 8.0 25.7 0.00 0.00 0.00 42 1010.1
20260506131056 22 45 8.0 20.9 0.00 0.00 0.00 42 1010.1
20260506130555 22 158 11.3 30.6 0.00 0.00 0.00 42 1010.2
20260506130056 22 180 6.4 20.9 0.00 0.00 0.00 41 1010.2
20260506125556 22 180 6.4 20.9 0.00 0.00 0.00 41 1010.2
20260506125056 22 270 11.3 37.0 0.00 0.00 0.00 41 1010.3
20260506124556 23 135 11.3 32.2 0.00 0.00 0.00 41 1010.0
20260506124055 23 135 11.3 33.8 0.00 0.00 0.00 40 1010.2
20260506123556 23 135 11.3 33.8 0.00 0.00 0.00 40 1010.2
20260506123055 23 180 9.7 29.0 0.00 0.00 0.00 40 1010.3
20260506122556 23 180 4.8 17.7 0.00 0.00 0.00 40 1010.5
20260506122056 23 180 6.4 20.9 0.00 0.00 0.00 41 1010.6
20260506121557 23 180 6.4 20.9 0.00 0.00 0.00 41 1010.6
20260506121056 23 180 8.0 24.1 0.00 0.00 0.00 41 1010.5
20260506120557 22 68 4.8 14.5 0.00 0.00 0.00 44 1010.5
20260506120055 23 180 8.0 22.5 0.00 0.00 0.00 41 1010.4
20260506115556 23 180 8.0 22.5 0.00 0.00 0.00 41 1010.4
20260506115056 23 180 8.0 22.5 0.00 0.00 0.00 40 1010.5
20260506114555 23 135 4.8 12.9 0.00 0.00 0.00 41 1010.5
20260506114055 22 135 4.8 14.5 0.00 0.00 0.00 46 1010.7
20260506113556 22 135 4.8 14.5 0.00 0.00 0.00 46 1010.7
20260506113055 21 180 8.0 24.1 0.00 0.00 0.00 47 1010.8
20260506112555 21 180 9.7 24.1 0.00 0.00 0.00 46 1010.9
20260506112056 22 135 6.4 17.7 0.00 0.00 0.00 45 1011.0
20260506111556 22 135 6.4 17.7 0.00 0.00 0.00 45 1011.0
20260506111056 21 225 6.4 20.9 0.00 0.00 0.00 45 1010.9
20260506110555 21 135 4.8 17.7 0.00 0.00 0.00 44 1011.2
20260506110055 21 135 6.4 19.3 0.00 0.00 0.00 49 1011.4
20260506105555 21 135 6.4 19.3 0.00 0.00 0.00 49 1011.4
20260506105056 21 180 3.2 8.0 0.00 0.00 0.00 49 1011.4
20260506104555 21 180 6.4 14.5 0.00 0.00 0.00 49 1011.5
20260506104056 21 135 4.8 16.1 0.00 0.00 0.00 49 1011.4
20260506103556 21 135 4.8 16.1 0.00 0.00 0.00 49 1011.4
20260506103055 21 90 6.4 19.3 0.00 0.00 0.00 49 1011.6
20260506102555 21 180 6.4 17.7 0.00 0.00 0.00 49 1011.5
20260506102055 21 225 3.2 12.9 0.00 0.00 0.00 50 1011.6
20260506101555 21 225 3.2 12.9 0.00 0.00 0.00 50 1011.6
20260506101055 20 180 6.4 19.3 0.00 0.00 0.00 48 1011.7
20260506100555 20 135 3.2 12.9 0.00 0.00 0.00 46 1011.6
20260506100055 21 180 6.4 16.1 0.00 0.00 0.00 44 1011.6
20260506095555 21 180 6.4 16.1 0.00 0.00 0.00 44 1011.6
20260506095055 21 225 9.7 25.7 0.00 0.00 0.00 43 1011.5
20260506094555 22 135 6.4 17.7 0.00 0.00 0.00 42 1011.4
20260506094055 23 180 6.4 17.7 0.00 0.00 0.00 37 1011.5
20260506093556 23 180 6.4 17.7 0.00 0.00 0.00 37 1011.5
20260506093055 23 180 8.0 24.1 0.00 0.00 0.00 36 1011.4
20260506092555 23 135 8.0 24.1 0.00 0.00 0.00 35 1011.2
20260506092055 23 180 6.4 17.7 0.00 0.00 0.00 35 1011.1
20260506091555 23 180 6.4 17.7 0.00 0.00 0.00 35 1011.1
20260506091055 23 158 8.0 22.5 0.00 0.00 0.00 33 1011.1
20260506090555 23 360 1.6 6.4 0.00 0.00 0.00 34 1011.2
20260506090055 23 158 6.4 19.3 0.00 0.00 0.00 35 1011.4
20260506085555 23 158 6.4 19.3 0.00 0.00 0.00 35 1011.4
20260506085056 23 180 4.8 16.1 0.00 0.00 0.00 35 1011.2
20260506084556 23 180 8.0 20.9 0.00 0.00 0.00 36 1011.3
20260506084056 23 135 4.8 12.9 0.00 0.00 0.00 35 1011.3
20260506083555 23 135 4.8 12.9 0.00 0.00 0.00 35 1011.3
20260506083055 22 135 3.2 8.0 0.00 0.00 0.00 36 1011.3
20260506082555 23 270 6.4 19.3 0.00 0.00 0.00 40 1011.3
20260506082055 23 90 3.2 6.4 0.00 0.00 0.00 40 1011.4
20260506081556 23 90 3.2 6.4 0.00 0.00 0.00 40 1011.4
20260506081055 23 180 3.2 9.7 0.00 0.00 0.00 40 1011.4
20260506080555 22 180 1.6 6.4 0.00 0.00 0.00 41 1011.4
20260506073055 21 113 1.6 4.8 0.00 0.00 0.00 48 1011.6
20260506072555 21 90 1.6 6.4 0.00 0.00 0.00 48 1011.4
20260506072055 21 180 3.2 6.4 0.00 0.00 0.00 48 1011.4
20260506071555 21 180 3.2 6.4 0.00 0.00 0.00 48 1011.4
20260506071056 21 135 1.6 6.4 0.00 0.00 0.00 49 1011.4
20260506070555 20 45 1.6 4.8 0.00 0.00 0.00 50 1011.5
20260506062055 17 360 1.6 3.2 0.00 0.00 0.00 53 1011.7
20260506061555 17 360 1.6 3.2 0.00 0.00 0.00 53 1011.7
20260506061055 16 23 3.2 9.7 0.00 0.00 0.00 57 1011.7
20260506060555 16 360 3.2 8.0 0.00 0.00 0.00 58 1011.5
20260506051055 18 360 0.0 1.6 0.00 0.00 0.00 61 1011.5
20260506050555 17 135 0.0 1.6 0.00 0.00 0.00 67 1011.5
20260506045055 15 270 0.0 3.2 0.00 0.00 0.00 79 1011.5
20260506044555 14 360 0.0 0.0 0.00 0.00 0.00 84 1011.5
20260506044055 12 270 0.0 0.0 0.00 0.00 0.00 88 1011.4
20260506043555 12 270 0.0 0.0 0.00 0.00 0.00 88 1011.4
20260506043055 11 45 0.0 0.0 0.00 0.00 0.00 91 1011.3
20260506042554 10 270 0.0 0.0 0.00 0.00 0.00 91 1011.4
20260506042054 8 270 0.0 0.0 0.00 0.00 0.00 90 1011.2
20260506041555 8 225 1.6 3.2 0.00 0.00 0.00 90 1011.2
20260506041054 8 360 0.0 1.6 0.00 0.00 0.00 90 1011.4
20260506040555 8 360 0.0 1.6 0.00 0.00 0.00 90 1011.4
20260506040055 8 225 1.6 4.8 0.00 0.00 0.00 90 1011.4
20260506035555 8 225 1.6 4.8 0.00 0.00 0.00 90 1011.4
20260506035055 8 270 0.0 3.2 0.00 0.00 0.00 90 1011.2
20260506034554 8 225 1.6 3.2 0.00 0.00 0.00 90 1011.1
20260506034055 8 225 0.0 0.0 0.00 0.00 0.00 90 1011.1
20260506033555 8 225 0.0 0.0 0.00 0.00 0.00 90 1011.1
20260506033054 8 180 1.6 3.2 0.00 0.00 0.00 90 1011.2
20260506032554 8 180 0.0 0.0 0.00 0.00 0.00 90 1011.0
20260506032055 8 225 0.0 0.0 0.00 0.00 0.00 90 1011.2
20260506031554 8 225 0.0 0.0 0.00 0.00 0.00 90 1011.2
20260506031055 8 315 0.0 3.2 0.00 0.00 0.00 90 1011.2
20260506030554 8 315 0.0 3.2 0.00 0.00 0.00 90 1011.2
20260506030055 8 315 0.0 1.6 0.00 0.00 0.00 88 1011.2
20260506025555 8 315 0.0 1.6 0.00 0.00 0.00 88 1011.2
20260506025055 8 360 1.6 3.2 0.00 0.00 0.00 88 1011.1
20260506024554 8 180 0.0 0.0 0.00 0.00 0.00 88 1010.9
20260506024054 8 180 0.0 0.0 0.00 0.00 0.00 88 1011.0
20260506023555 8 180 0.0 0.0 0.00 0.00 0.00 88 1011.0
20260506023054 8 315 0.0 0.0 0.00 0.00 0.00 88 1011.1
20260506022554 8 360 1.6 3.2 0.00 0.00 0.00 87 1010.8
20260506022054 8 180 0.0 0.0 0.00 0.00 0.00 87 1010.9
20260506021554 8 180 0.0 0.0 0.00 0.00 0.00 87 1010.9
20260506021054 9 180 0.0 1.6 0.00 0.00 0.00 87 1010.7
20260506020554 9 180 0.0 1.6 0.00 0.00 0.00 87 1010.7
20260506020054 9 225 0.0 0.0 0.00 0.00 0.00 87 1010.8
20260506015554 9 225 0.0 0.0 0.00 0.00 0.00 87 1010.8
20260506015054 9 225 0.0 1.6 0.00 0.00 0.00 86 1010.8
20260506014554 9 45 1.6 3.2 0.00 0.00 0.00 86 1010.7
20260506014055 9 360 1.6 4.8 0.00 0.00 0.00 86 1010.6
20260506013554 9 360 1.6 4.8 0.00 0.00 0.00 86 1010.6
20260506013054 10 225 1.6 3.2 0.00 0.00 0.00 86 1010.6
20260506012554 10 225 1.6 3.2 0.00 0.00 0.00 86 1010.6
20260506012054 9 270 0.0 1.6 0.00 0.00 0.00 85 1010.3
20260506011554 9 270 0.0 1.6 0.00 0.00 0.00 85 1010.3
20260506011054 10 225 0.0 0.0 0.00 0.00 0.00 85 1010.5
20260506010555 9 225 0.0 1.6 0.00 0.00 0.00 84 1010.4
20260506010054 10 360 0.0 3.2 0.00 0.00 0.00 84 1010.4
20260506005554 10 360 0.0 3.2 0.00 0.00 0.00 84 1010.4
20260506005054 10 225 0.0 3.2 0.00 0.00 0.00 84 1010.4
20260506004555 10 225 0.0 3.2 0.00 0.00 0.00 84 1010.4
20260506004054 10 45 1.6 3.2 0.00 0.00 0.00 84 1010.4
20260506003554 10 45 1.6 3.2 0.00 0.00 0.00 84 1010.4
20260506003055 10 225 1.6 3.2 0.00 0.00 0.00 83 1010.2
20260506002554 10 225 1.6 3.2 0.00 0.00 0.00 83 1010.2
20260506002055 10 225 0.0 3.2 0.00 0.00 0.00 83 1010.4
20260506001554 10 225 0.0 3.2 0.00 0.00 0.00 83 1010.4
20260506001054 10 270 1.6 3.2 0.00 0.00 0.00 83 1010.4
20260506000554 10 225 1.6 3.2 0.00 0.00 0.00 82 1010.4
20260506000054 10 203 1.6 3.2 0.00 0.00 0.00 81 1010.4
20260505235554 10 203 1.6 3.2 0.00 0.00 0.00 81 1010.4
20260505235054 10 315 0.0 0.0 0.00 0.00 0.00 81 1010.3
20260505234554 11 180 0.0 3.2 0.00 0.00 0.00 82 1010.5
20260505234054 11 270 1.6 3.2 0.00 0.00 0.00 81 1010.5
20260505204322 14 135 3.2 8.0 0.00 0.00 0.00 66 1010.9
20260505203822 15 315 1.6 3.2 0.00 0.00 0.00 65 1010.7
20260505203322 15 315 1.6 4.8 0.00 0.00 0.00 65 1010.8
20260505202822 15 315 1.6 3.2 0.00 0.00 0.00 64 1011.0
20260505202326 15 360 1.6 3.2 0.00 0.00 0.00 64 1010.9
20260505201822 15 135 1.6 4.8 0.00 0.00 0.00 64 1010.9
20260505201322 15 225 4.8 12.9 0.00 0.00 0.00 63 1010.8
20260505200822 15 180 3.2 9.7 0.00 0.00 0.00 63 1010.8
20260505200322 15 135 1.6 6.4 0.00 0.00 0.00 63 1010.8
20260505195822 15 180 3.2 6.4 0.00 0.00 0.00 63 1010.8
20260505195322 15 45 1.6 6.4 0.00 0.00 0.00 63 1010.7
20260505194944 15 180 3.2 8.0 0.00 0.00 0.00 63 1010.7
20260505194746 15 180 3.2 8.0 0.00 0.00 0.00 63 1010.7
20260505194410 15 135 4.8 17.7 0.00 0.00 0.00 63 1010.7
20260505194216 15 135 4.8 17.7 0.00 0.00 0.00 63 1010.7
20260505193720 15 180 1.6 6.4 0.00 0.00 0.00 62 1010.8
20260505193231 15 203 3.2 12.9 0.00 0.00 0.00 62 1010.7
20260505192711 16 180 3.2 8.0 0.00 0.00 0.00 62 1010.7
20260505192211 16 203 3.2 11.3 0.00 0.00 0.00 61 1010.7
20260505191711 16 180 6.4 16.1 0.00 0.00 0.00 61 1010.8
20260505191211 16 180 8.0 22.5 0.00 0.00 0.00 61 1010.7
20260505190711 16 158 4.8 11.3 0.00 0.00 0.00 61 1010.8
20260505190211 16 135 4.8 14.5 0.00 0.00 0.00 61 1010.7
20260505185836 16 180 3.2 11.3 0.00 0.00 0.00 61 1010.8
20260505180643 17 180 6.4 17.7 0.00 0.00 0.00 57 1010.6
20260505180213 17 225 4.8 16.1 0.00 0.00 0.00 56 1010.7
20260505175713 17 225 4.8 12.9 0.00 0.00 0.00 56 1010.7
20260505175213 17 180 3.2 12.9 0.00 0.00 0.00 55 1010.6
20260505174713 17 180 6.4 19.3 0.00 0.00 0.00 51 1010.7
20260505174213 17 225 6.4 17.7 0.00 0.00 0.00 51 1010.7
20260505173714 17 180 6.4 19.3 0.00 0.00 0.00 51 1010.8
20260505173214 17 225 8.0 24.1 0.00 0.00 0.00 51 1010.7
20260505172713 17 180 4.8 14.5 0.00 0.00 0.00 50 1010.7
20260505172213 18 135 4.8 17.7 0.00 0.00 0.00 50 1010.8
20260505171713 18 135 6.4 19.3 0.00 0.00 0.00 50 1010.7
20260505171213 18 180 6.4 17.7 0.00 0.00 0.00 50 1010.7
20260505170713 18 180 9.7 25.7 0.00 0.00 0.00 50 1010.9
20260505170213 18 135 6.4 16.1 0.00 0.00 0.00 49 1010.8
20260505165713 18 225 4.8 16.1 0.00 0.00 0.00 48 1010.8